Aberdeen, SD

4:49 PM CST on February 24, 2017 (GMT -0600)
Aberdeen Regional

Weather History for KABR - March, 2013

Change the Weather History Date:

Sunday, March 24, 2013

  Actual Average Record
Temperature  
Mean Temperature 19 °F 34 °F  
Max Temperature 28 °F 44 °F 80 °F (1939)
Min Temperature 9 °F 23 °F -6 °F (1974)
Degree Days  
Heating Degree Days 46 31  
Month to date heating degree days 1126 881  
Since 1 July heating degree days 7540 7344  
Cooling Degree Days 0 0  
Month to date cooling degree days 0 0  
Year to date cooling degree days 0 0  
Moisture  
Dew Point 16 °F    
Average Humidity 80    
Maximum Humidity 84    
Minimum Humidity 75    
Precipitation  
Precipitation T in 0.05 in 3.00 in (1937)
Month to date precipitation 0.24 0.84  
Year to date precipitation 2.08 1.86  
Snow  
Snow 0.20 in - - ()
Month to date snowfall 1.9  
Since 1 July snowfall 41.0  
Snow Depth 5.00 in    
Sea Level Pressure  
Sea Level Pressure 30.20 in    
Wind  
Wind Speed 12 mph (NNW)    
Max Wind Speed 20 mph    
Max Gust Speed 23 mph    
Visibility 7 miles    
Events Snow    
T = Trace of Precipitation, MM = Missing Value Source: NWS Daily Summary

Daily Weather History Graph

Daily Weather History Graph

Search for Another Location

Airport or City:

Trip Planner

Search our weather history database for the weather conditions in past years. The results will help you decide how hot, cold, wet, or windy it might be!

Date:

Astronomy

Mar. 24, 2013 Rise Set
Actual Time 7:28 AM CDT 7:51 PM CDT
Civil Twilight 6:59 AM CDT 8:21 PM CDT
Nautical Twilight 6:24 AM CDT 8:56 PM CDT
Astronomical Twilight 5:48 AM CDT 9:32 PM CDT
Moon 5:15 PM CDT 5:46 AM CDT
Length of Visible Light 13h 22m
Length of Day
12h 23m
Waxing Gibbous, 92% of the Moon is Illuminated
Mar 24
Waxing Gibbous
Mar 27
Full
Apr 2
Last Quarter
Apr 10
New
Apr 18
First Quarter

Hourly Weather History & Observations

Time (CDT) Temp. Windchill Dew Point Humidity Pressure Visibility Wind Dir Wind Speed Gust Speed Precip Events Conditions
12:53 AM 15.1 °F 4.2 °F 10.9 °F 84% 30.25 in 7.0 mi NW 8.1 mph - N/A   Clear
1:53 AM 12.0 °F 2.7 °F 8.1 °F 84% 30.25 in 9.0 mi NW 5.8 mph - N/A   Clear
2:53 AM 10.0 °F 1.8 °F 6.1 °F 84% 30.25 in 9.0 mi WNW 4.6 mph - N/A   Clear
3:53 AM 10.9 °F 1.4 °F 7.0 °F 84% 30.24 in 9.0 mi NW 5.8 mph - N/A   Mostly Cloudy
4:09 AM 12.2 °F 1.7 °F 8.6 °F 85% 30.17 in 9.0 mi WNW 6.9 mph - N/A   Overcast
4:53 AM 15.1 °F 5.2 °F 10.0 °F 80% 30.22 in 2.5 mi NW 6.9 mph - 0.00 in Snow Light Snow
5:02 AM 15.8 °F 5.1 °F 10.4 °F 79% 30.16 in 3.0 mi WNW 8.1 mph - 0.00 in Snow Light Snow
5:43 AM 15.8 °F 5.1 °F 10.4 °F 79% 30.15 in 3.0 mi NW 8.1 mph - 0.00 in Snow Light Snow
5:53 AM 15.1 °F 5.2 °F 10.0 °F 80% 30.22 in 2.5 mi NW 6.9 mph - 0.00 in Snow Light Snow
6:21 AM 14.0 °F 5.1 °F 10.4 °F 86% 30.15 in 3.0 mi NW 5.8 mph - 0.00 in Snow Light Snow
6:53 AM 15.1 °F 5.2 °F 10.0 °F 80% 30.22 in 4.0 mi NW 6.9 mph - 0.00 in Snow Light Snow
7:53 AM 12.9 °F 5.2 °F 9.0 °F 84% 30.22 in 4.0 mi WNW 4.6 mph - 0.00 in Snow Light Snow
8:26 AM 15.8 °F 7.2 °F 10.4 °F 79% 30.15 in 2.5 mi WNW 5.8 mph - 0.00 in Snow Light Snow
8:38 AM 15.8 °F 6.1 °F 10.4 °F 79% 30.14 in 3.0 mi WNW 6.9 mph - 0.00 in Snow Light Snow
8:53 AM 16.0 °F 3.6 °F 10.9 °F 81% 30.21 in 4.0 mi NW 10.4 mph - 0.00 in Snow Light Snow
9:53 AM 18.0 °F 6.1 °F 12.9 °F 81% 30.21 in 3.0 mi NNW 10.4 mph - 0.00 in Snow Light Snow
10:04 AM 19.4 °F 7.9 °F 14.0 °F 80% 30.14 in 2.5 mi NNW 10.4 mph - 0.00 in Snow Light Snow
10:11 AM 19.4 °F 7.2 °F 14.0 °F 80% 30.14 in 3.0 mi NNW 11.5 mph - 0.00 in Snow Light Snow
10:53 AM 19.9 °F 7.9 °F 14.0 °F 78% 30.21 in 10.0 mi NNW 11.5 mph - 0.00 in   Overcast
11:53 AM 21.0 °F 8.6 °F 15.1 °F 78% 30.21 in 10.0 mi North 12.7 mph - N/A   Overcast
12:53 PM 23.0 °F 10.6 °F 17.1 °F 78% 30.21 in 10.0 mi North 13.8 mph - N/A   Overcast
1:32 PM 24.8 °F 12.9 °F 17.6 °F 74% 30.13 in 10.0 mi North 13.8 mph - N/A   Overcast
1:44 PM 24.8 °F 12.9 °F 19.4 °F 80% 30.14 in 10.0 mi NNW 13.8 mph - N/A   Overcast
1:53 PM 26.1 °F 13.6 °F 19.0 °F 75% 30.21 in 10.0 mi North 16.1 mph - N/A   Overcast
2:04 PM 26.6 °F 14.3 °F 19.4 °F 74% 30.14 in 10.0 mi North 16.1 mph - N/A   Overcast
2:31 PM 26.6 °F 13.8 °F 19.4 °F 74% 30.13 in 1.8 mi North 17.3 mph - 0.00 in Snow Light Snow
2:39 PM 26.6 °F 14.3 °F 19.4 °F 74% 30.13 in 1.5 mi North 16.1 mph - 0.00 in Snow Light Snow
2:53 PM 26.1 °F 14.0 °F 19.9 °F 78% 30.21 in 1.5 mi North 15.0 mph - 0.00 in Snow Light Snow
3:13 PM 26.6 °F 15.2 °F 21.2 °F 80% 30.13 in 2.0 mi North 13.8 mph - 0.00 in Snow Light Snow
3:29 PM 26.6 °F 14.7 °F 21.2 °F 80% 30.13 in 3.0 mi North 15.0 mph - 0.00 in Snow Light Snow
3:48 PM 26.6 °F 13.8 °F 21.2 °F 80% 30.13 in 5.0 mi North 17.3 mph - 0.00 in Snow Light Snow
3:53 PM 27.0 °F 14.3 °F 21.0 °F 78% 30.20 in 6.0 mi North 17.3 mph - 0.00 in Snow Light Snow
4:17 PM 26.6 °F 13.8 °F 21.2 °F 80% 30.14 in 10.0 mi North 17.3 mph - 0.00 in   Overcast
4:48 PM 26.6 °F 13.8 °F 21.2 °F 80% 30.15 in 10.0 mi North 17.3 mph - 0.00 in   Overcast
4:53 PM 27.0 °F 14.7 °F 21.0 °F 78% 30.21 in 10.0 mi North 16.1 mph - 0.00 in   Overcast
5:30 PM 26.6 °F 13.4 °F 19.4 °F 74% 30.16 in 10.0 mi North 18.4 mph - N/A   Overcast
5:53 PM 27.0 °F 15.6 °F 19.9 °F 75% 30.24 in 10.0 mi North 13.8 mph - N/A   Overcast
6:53 PM 27.0 °F 15.6 °F 19.9 °F 75% 30.24 in 10.0 mi NNW 13.8 mph - 0.00 in   Overcast
7:27 PM 26.6 °F 15.2 °F 19.4 °F 74% 30.19 in 4.0 mi North 13.8 mph - 0.00 in Snow Light Snow
7:43 PM 24.8 °F 13.4 °F 19.4 °F 80% 30.19 in 10.0 mi North 12.7 mph - 0.00 in   Overcast
7:53 PM 25.0 °F 14.8 °F 19.9 °F 81% 30.27 in 10.0 mi North 10.4 mph - 0.00 in   Mostly Cloudy
8:04 PM 24.8 °F 12.4 °F 19.4 °F 80% 30.20 in 10.0 mi North 15.0 mph - N/A   Overcast
8:42 PM 24.8 °F 13.4 °F 19.4 °F 80% 30.21 in 10.0 mi North 12.7 mph - N/A   Overcast
8:53 PM 24.1 °F 11.5 °F 19.0 °F 81% 30.28 in 10.0 mi North 15.0 mph - N/A   Overcast
9:53 PM 23.0 °F 10.1 °F 18.0 °F 81% 30.29 in 10.0 mi NNW 15.0 mph - N/A   Mostly Cloudy
10:53 PM 23.0 °F 11.7 °F 17.1 °F 78% 30.30 in 10.0 mi NNW 11.5 mph - N/A   Overcast
11:53 PM 21.9 °F 8.2 °F 17.1 °F 82% 30.31 in 10.0 mi NNW 16.1 mph - N/A   Overcast